Wind_Speed
4 4 3 4 3 5 3 6 2 2 2 2 1 2 3 1 3 4 9 12 9 9 7 7 8 9 11 11 11 10 10 11 12 13 13 14 12 9 9 13 14 14 14 14 16 16 16 15 15
3 3 5 3 4 2 5 4 5 3 2 5 2 1 1 4 3 3 13 12 8 8 8 8 9 10 9 8 8 7 8 9 10 11 13 14 15 15 12 10 13 16 15 15 15 16 17 16 16
4 6 3 4 3 5 5 5 4 2 6 2 2 2 2 3 5 4 7 9 9 9 9 9 8 7 8 7 7 8 8 9 9 10 10 12 13 15 18 15 11 15 17 17 16 16 17 17 17
4 4 4 4 5 6 6 3 5 4 3 4 2 3 4 7 2 4 5 6 9 10 9 7 6 7 8 8 8 9 9 9 9 10 11 12 13 14 15 18 18 13 16 17 17 16 16 18 18
5 3 3 0 5 5 3 3 9 4 2 5 6 3 4 6 9 6 6 7 8 8 8 7 7 8 8 8 8 8 8 8 9 10 10 11 12 14 15 17 20 20 15 17 18 17 17 18 19
2 2 3 3 5 4 2 4 5 4 6 4 5 3 4 7 11 9 9 8 8 9 8 7 7 8 8 9 8 7 8 9 10 11 12 12 13 14 15 17 17 19 20 16 17 19 18 19 20
5 4 4 3 4 4 4 5 4 5 4 7 4 4 4 9 11 10 9 10 10 9 8 8 8 9 8 8 8 8 9 11 12 13 14 14 15 15 16 16 17 18 19 21 19 19 18 19 19
2 4 2 4 3 5 3 3 4 6 8 6 12 6 5 6 14 13 12 11 11 10 9 9 9 8 8 8 9 10 12 12 13 15 16 17 17 17 16 17 18 18 19 20 17 15 17 17 19
3 3 3 4 6 3 3 2 4 5 8 8 10 12 7 5 15 16 16 15 14 12 11 10 9 7 7 8 10 11 14 15 16 16 17 17 17 17 16 16 17 18 19 18 16 16 14 17 17
3 3 7 4 3 3 3 5 4 4 6 9 16 20 14 11 15 18 17 15 15 13 11 11 10 9 10 9 11 13 15 16 17 17 17 18 17 16 17 15 16 16 17 18 16 13 15 18 18
5 5 3 3 5 4 3 4 6 3 7 18 14 17 19 18 18 18 15 13 13 11 13 11 10 11 11 12 13 15 17 18 18 18 18 18 17 16 15 15 14 14 14 14 12 13 15 17 22
2 7 5 5 4 2 3 4 6 15 18 7 7 10 14 19 20 19 17 14 13 14 12 11 11 12 13 14 15 17 17 18 18 18 18 19 18 16 14 14 13 13 11 10 14 14 15 17 19
3 3 4 9 9 9 9 11 10 23 27 23 21 15 13 14 16 19 17 14 13 13 11 11 12 12 13 15 17 18 18 18 19 19 18 18 17 15 14 12 12 15 11 12 14 15 17 19 20
3 7 11 10 11 9 3 4 2 8 3 6 14 24 22 22 18 19 21 18 16 13 11 11 12 12 14 16 18 18 18 19 19 18 17 16 15 13 12 10 9 8 13 13 16 17 19 22 23
4 6 7 5 4 4 1 7 9 14 11 10 8 11 20 18 19 20 16 16 14 12 12 12 13 14 15 17 18 18 19 18 18 17 16 15 13 11 9 8 7 11 12 14 15 19 20 24 24
3 2 4 1 5 1 2 9 5 4 10 11 12 11 12 19 20 17 15 14 13 13 12 13 13 13 15 16 17 17 17 17 17 15 14 13 10 9 8 9 7 11 12 15 13 18 21 29 27
3 4 4 7 7 1 4 8 5 4 5 12 17 17 14 13 16 17 16 14 13 12 12 12 12 13 14 15 16 16 16 16 15 15 14 13 5 6 8 5 6 9 11 11 15 14 24 34 27
5 4 4 5 1 2 5 17 19 21 20 25 26 22 18 16 15 14 17 15 14 12 12 12 12 13 13 14 14 15 14 13 13 12 11 4 2 3 3 4 5 6 11 11 9 13 15 32 29
3 2 4 4 1 2 7 11 20 14 12 16 16 15 17 18 14 15 16 14 14 14 12 10 11 11 12 13 13 13 11 11 9 6 6 4 3 2 3 4 4 4 11 10 10 13 20 30 28
3 3 5 5 0 1 6 19 16 6 3 3 4 2 5 13 15 18 18 16 14 12 11 10 10 10 12 12 12 10 9 8 5 5 4 4 5 4 3 4 3 2 6 10 5 10 17 21 30
4 5 4 5 5 2 7 8 5 2 2 1 1 2 4 9 16 20 20 17 15 12 10 8 9 10 11 11 9 7 6 4 2 3 4 4 5 4 2 2 1 2 3 7 6 14 17 25 36
3 3 2 1 3 3 4 5 7 4 7 4 6 4 5 10 15 18 18 17 13 10 9 8 9 10 9 8 6 5 4 1 1 3 4 6 5 4 2 2 1 3 7 9 6 7 19 34 37
4 2 3 2 3 3 1 2 7 4 6 7 8 11 9 11 14 16 16 13 12 11 9 9 8 8 7 6 4 4 2 1 3 3 2 2 3 2 2 3 2 2 8 6 7 8 23 39 34
6 4 6 4 2 2 1 4 6 3 5 1 4 15 14 15 15 15 14 15 13 12 9 9 8 7 6 3 3 3 1 3 3 3 4 2 1 1 1 3 3 4 6 7 17 14 11 20 19
3 5 2 4 3 5 2 1 10 5 6 4 6 17 18 16 16 16 17 15 14 11 9 8 7 5 5 2 2 1 1 3 5 3 2 2 1 0 2 2 1 4 7 6 8 11 13 15 19
5 5 5 6 3 3 3 6 6 5 4 8 12 14 18 19 18 17 14 13 12 9 8 9 7 5 5 3 2 3 3 3 3 4 3 3 4 4 4 3 1 3 7 8 8 11 14 11 19
5 4 2 6 2 3 4 7 10 4 6 2 6 14 20 21 20 18 15 12 11 9 8 9 7 5 6 3 2 5 5 4 3 3 4 3 4 5 5 3 2 3 8 11 6 8 6 11 22
2 1 3 3 2 4 4 5 6 4 8 6 7 16 21 21 20 19 17 14 11 10 10 10 8 5 6 3 4 7 7 5 3 2 2 4 4 5 6 3 3 4 9 11 7 6 3 10 16
2 1 0 1 3 5 1 6 6 6 5 10 10 22 23 24 23 21 18 15 12 11 10 9 7 5 6 4 6 9 7 5 2 2 0 1 4 6 6 6 6 5 9 9 6 10 8 18 18
2 4 6 4 5 2 2 6 3 3 3 8 13 21 22 23 22 21 18 17 14 11 11 9 8 5 6 6 9 9 7 4 2 2 0 1 3 6 8 7 6 10 14 11 7 11 12 23 17
Wind_Direction
261 253 208 164 57 63 266 259 245 192 227 192 166 210 226 125 170 206 146 163 158 175 193 212 236 261 270 272 272 271 272 270 267 263 257 253 246 246 264 263 260 255 250 247 246 243 236 232 231
222 190 159 124 95 76 267 258 228 214 188 147 157 185 273 258 207 200 163 178 184 198 211 233 252 265 269 272 278 280 277 274 272 269 267 261 256 242 240 252 262 257 254 250 246 247 242 233 235
176 168 161 100 117 184 217 229 209 175 163 210 212 214 220 237 222 227 199 185 196 212 228 248 262 268 278 280 282 284 286 286 282 279 274 271 265 259 255 243 250 262 257 251 247 246 241 239 236
156 152 73 96 226 247 208 227 186 156 219 215 213 259 240 222 217 213 213 199 212 216 238 254 265 277 280 284 289 292 294 294 295 293 289 283 279 272 264 251 247 254 263 255 250 243 241 236 237
161 126 67 329 256 260 237 226 179 181 233 212 193 248 228 226 220 218 234 233 238 239 245 246 265 277 282 285 287 295 302 307 307 302 294 285 279 274 269 261 254 247 254 257 254 249 243 237 236
112 98 80 230 246 265 277 173 163 225 239 195 201 242 241 216 218 227 235 243 237 250 247 253 266 273 276 281 287 295 300 304 304 300 296 293 285 275 267 262 256 248 243 250 256 249 245 241 236
127 94 208 211 255 284 214 170 205 220 235 239 204 186 251 224 199 211 228 239 243 242 253 267 273 274 272 280 289 292 294 296 300 302 302 297 289 282 275 267 263 260 250 242 251 255 248 244 239
151 97 215 242 210 264 209 201 235 217 242 244 212 223 247 238 201 206 224 233 237 246 256 265 271 272 272 283 290 290 293 299 302 303 301 300 297 289 280 270 262 255 253 251 249 256 249 243 235
150 67 237 242 173 219 217 227 225 243 242 221 219 239 235 236 206 209 215 224 234 246 255 261 264 273 282 290 292 296 299 300 302 302 302 301 299 293 285 272 263 256 251 245 241 253 242 237 232
120 139 226 221 200 216 209 217 265 264 247 250 243 242 243 234 223 221 225 237 241 247 255 262 268 279 288 296 298 300 301 299 300 302 303 302 300 294 286 274 262 253 247 237 235 239 233 224 221
170 212 223 257 229 229 253 272 236 241 263 245 244 265 242 235 226 226 232 243 258 256 251 257 267 280 289 297 299 302 301 300 301 302 304 304 302 294 284 276 262 249 241 232 232 231 216 219 190
223 247 246 286 250 241 236 276 270 225 249 261 277 259 249 236 230 229 230 239 250 250 255 259 269 280 288 292 296 298 299 298 298 301 301 300 299 294 283 272 256 237 218 218 222 228 203 213 222
222 265 254 267 269 258 266 253 259 267 271 265 260 250 235 239 248 242 236 237 242 249 256 265 274 279 282 288 293 297 298 297 297 298 298 298 296 291 280 270 251 224 204 221 230 217 203 212 201
303 291 281 284 270 251 254 272 320 275 282 289 246 243 246 251 249 237 233 237 245 248 258 269 278 277 282 285 290 294 294 297 300 298 297 296 292 286 277 260 252 207 213 215 221 215 209 205 193
309 320 317 236 234 237 225 283 229 260 271 266 258 256 240 248 233 232 237 242 246 247 256 267 270 278 283 285 289 292 296 301 300 300 302 297 286 278 268 244 254 204 219 213 213 211 211 210 187
344 44 338 225 156 195 128 270 263 269 248 255 249 250 243 248 247 239 230 235 235 245 255 264 272 277 277 283 289 295 299 300 297 297 300 297 280 266 243 237 241 224 219 226 210 210 212 190 184
5 245 220 311 199 125 177 273 259 259 254 259 262 250 242 246 233 232 228 225 233 241 250 263 272 271 278 288 295 300 305 303 304 299 297 289 265 243 249 249 242 241 228 225 223 214 205 195 184
213 233 238 255 242 188 256 261 277 273 266 271 277 259 247 243 235 222 214 216 222 233 244 261 266 278 286 293 303 312 311 311 306 303 298 305 332 312 300 240 237 234 238 215 246 225 208 189 188
113 232 275 269 274 274 248 277 281 292 250 270 276 262 248 236 227 210 209 213 220 232 248 259 271 279 293 305 318 316 314 313 316 346 4 360 341 288 261 232 245 260 219 234 256 228 192 181 189
251 271 272 277 313 286 325 295 282 288 243 278 302 275 229 207 214 202 206 212 222 239 250 256 270 290 306 320 323 323 316 310 334 359 3 354 320 302 150 235 251 271 202 225 244 201 173 208 185
219 199 220 236 319 242 324 291 322 309 290 277 224 256 231 211 199 196 201 211 220 238 245 262 284 302 316 327 324 316 321 334 13 12 18 12 358 109 148 196 68 37 270 224 227 187 191 163 171
252 208 143 76 43 262 16 287 305 324 299 245 218 222 193 182 189 193 198 208 226 234 244 264 286 303 325 323 325 319 320 266 75 53 33 49 58 98 110 137 145 60 47 212 147 182 202 186 162
225 82 107 85 97 3 352 95 270 356 299 251 227 216 195 180 185 193 206 220 227 236 248 265 283 302 321 328 322 309 298 144 102 105 108 48 65 105 100 134 115 79 103 128 199 184 169 174 152
146 75 42 48 69 12 200 145 283 219 217 268 225 213 199 190 194 205 212 219 227 232 243 260 277 304 306 319 299 303 263 152 125 93 52 44 56 90 121 124 89 132 144 123 173 172 176 197 204
79 82 325 351 8 213 28 92 247 252 240 233 212 211 203 197 203 209 210 217 223 231 244 258 272 295 286 277 278 224 203 171 141 122 91 182 127 126 130 126 86 119 171 153 132 185 162 156 184
182 165 166 207 207 249 24 232 249 206 273 260 249 228 200 201 206 213 212 214 220 230 242 255 266 286 272 250 243 199 167 161 170 139 134 157 178 166 177 216 162 97 160 165 142 169 183 180 198
191 193 181 103 36 48 215 280 291 226 260 262 207 190 198 201 206 210 209 213 226 232 240 252 260 272 266 251 221 194 180 181 192 162 143 163 185 174 193 208 129 125 159 154 142 145 144 198 213
173 156 83 352 159 243 278 278 241 283 228 214 215 210 205 204 204 208 214 217 225 223 227 240 248 262 260 241 198 186 199 184 181 165 136 129 185 194 205 215 213 168 160 164 162 155 154 188 184
154 233 222 189 164 177 198 257 224 247 230 207 218 215 213 211 207 208 216 216 219 220 224 233 243 259 258 225 185 185 203 178 166 140 107 227 213 211 220 218 219 201 176 166 150 152 149 172 155
314 215 167 142 249 247 160 274 359 276 311 237 238 226 222 220 217 214 217 220 220 220 220 225 235 243 236 203 182 183 186 162 127 97 7 263 254 238 216 214 214 172 160 145 145 196 152 178 164
Height
1505 1505 1506 1508 1520 1525 1527 1516 1504 1503 1503 1501 1501 1502 1501 1501 1501 1513 1502 1503 1503 1505 1506 1507 1508 1508 1508 1507 1506 1505 1504 1504 1503 1502 1502 1501 1502 1502 1502 1503 1503 1503 1504 1505 1505 1506 1507 1508 1509
1504 1505 1507 1508 1527 1535 1528 1509 1503 1500 1500 1500 1501 1501 1501 1499 1498 1498 1500 1501 1503 1504 1505 1506 1507 1506 1506 1505 1504 1503 1502 1502 1501 1500 1500 1499 1500 1499 1500 1500 1500 1501 1501 1502 1503 1504 1505 1506 1507
1503 1505 1507 1514 1532 1530 1522 1502 1498 1499 1499 1500 1500 1500 1500 1497 1496 1496 1496 1499 1501 1503 1504 1504 1504 1504 1503 1503 1503 1502 1501 1501 1500 1499 1499 1498 1497 1497 1497 1498 1498 1498 1499 1499 1500 1501 1503 1504 1505
1504 1506 1509 1518 1520 1511 1505 1497 1498 1498 1500 1499 1499 1499 1498 1497 1497 1497 1497 1499 1500 1501 1502 1502 1502 1502 1502 1502 1501 1501 1500 1499 1499 1498 1497 1496 1495 1495 1495 1495 1495 1496 1496 1496 1497 1498 1499 1501 1502
1503 1504 1516 1518 1514 1503 1498 1497 1498 1499 1498 1498 1498 1496 1495 1494 1496 1497 1498 1499 1499 1500 1499 1500 1500 1500 1501 1501 1500 1499 1499 1498 1497 1497 1496 1495 1493 1493 1492 1492 1492 1493 1494 1494 1494 1495 1497 1498 1499
1503 1505 1520 1521 1511 1499 1496 1496 1498 1499 1497 1496 1497 1496 1492 1491 1493 1496 1498 1499 1500 1500 1500 1499 1499 1499 1499 1499 1498 1498 1497 1497 1496 1494 1493 1492 1491 1490 1489 1488 1488 1488 1490 1491 1491 1492 1493 1495 1496
1503 1510 1515 1512 1508 1500 1494 1495 1496 1496 1495 1495 1493 1494 1490 1489 1491 1494 1496 1498 1500 1500 1500 1500 1499 1498 1497 1497 1497 1497 1495 1495 1493 1492 1490 1489 1488 1487 1486 1485 1485 1485 1485 1487 1488 1489 1489 1492 1493
1502 1505 1508 1507 1507 1500 1493 1492 1491 1492 1492 1491 1492 1490 1489 1488 1490 1491 1493 1495 1497 1498 1498 1498 1498 1497 1497 1496 1495 1495 1493 1491 1490 1489 1487 1486 1484 1483 1483 1482 1481 1481 1481 1483 1484 1486 1487 1487 1489
1502 1511 1515 1502 1500 1493 1493 1493 1491 1490 1489 1489 1489 1486 1486 1487 1487 1489 1490 1492 1494 1495 1496 1496 1496 1496 1495 1494 1494 1492 1491 1489 1487 1486 1484 1483 1481 1480 1479 1478 1477 1477 1478 1479 1481 1482 1484 1485 1486
1502 1512 1503 1494 1492 1492 1491 1492 1491 1490 1486 1484 1484 1484 1484 1484 1486 1487 1488 1490 1491 1493 1494 1495 1494 1495 1494 1492 1491 1489 1488 1486 1484 1482 1481 1479 1478 1476 1475 1474 1473 1473 1474 1476 1478 1479 1481 1482 1484
1500 1504 1495 1491 1491 1491 1491 1491 1489 1487 1483 1477 1478 1480 1482 1481 1481 1484 1486 1487 1489 1491 1491 1492 1493 1492 1491 1489 1487 1486 1484 1483 1481 1478 1476 1475 1474 1473 1471 1470 1470 1470 1471 1472 1475 1476 1478 1481 1483
1499 1493 1494 1492 1491 1491 1491 1488 1486 1482 1473 1476 1476 1476 1478 1479 1479 1480 1482 1485 1487 1489 1490 1489 1489 1489 1489 1487 1485 1483 1481 1479 1477 1475 1473 1471 1470 1469 1468 1467 1467 1467 1469 1470 1472 1474 1477 1479 1481
1497 1492 1491 1491 1490 1489 1489 1487 1486 1474 1471 1474 1475 1474 1475 1477 1477 1478 1481 1483 1484 1485 1486 1487 1487 1486 1486 1485 1483 1480 1478 1476 1474 1472 1470 1467 1466 1465 1465 1464 1464 1464 1466 1468 1469 1471 1474 1476 1478
1495 1493 1490 1488 1488 1488 1487 1486 1485 1468 1467 1468 1469 1470 1472 1473 1476 1476 1478 1480 1481 1483 1484 1484 1484 1484 1483 1482 1480 1477 1475 1473 1470 1468 1466 1464 1463 1462 1462 1462 1462 1463 1464 1465 1466 1468 1471 1475 1477
1495 1495 1490 1485 1485 1486 1485 1483 1479 1466 1466 1466 1466 1466 1469 1470 1473 1474 1476 1477 1480 1481 1481 1482 1481 1481 1480 1478 1476 1474 1472 1470 1467 1465 1463 1461 1460 1459 1460 1460 1461 1460 1462 1463 1465 1467 1469 1473 1476
1496 1497 1498 1484 1485 1485 1487 1482 1464 1465 1465 1464 1464 1465 1466 1468 1469 1472 1473 1475 1477 1479 1479 1480 1479 1479 1477 1475 1473 1471 1468 1466 1464 1462 1461 1458 1457 1457 1458 1458 1459 1459 1460 1461 1463 1465 1467 1471 1474
1500 1501 1498 1488 1484 1485 1487 1479 1464 1463 1464 1461 1461 1461 1462 1464 1466 1469 1470 1471 1474 1475 1475 1477 1477 1475 1474 1472 1471 1468 1466 1463 1461 1460 1458 1456 1455 1456 1457 1457 1458 1457 1458 1459 1460 1462 1466 1470 1473
1497 1499 1495 1494 1486 1485 1487 1477 1461 1461 1461 1456 1453 1456 1458 1459 1463 1466 1467 1469 1471 1473 1473 1474 1474 1473 1472 1470 1468 1466 1464 1461 1459 1458 1456 1455 1455 1456 1457 1457 1457 1457 1456 1458 1458 1461 1458 1465 1471
1489 1491 1492 1487 1485 1486 1481 1476 1460 1455 1455 1452 1448 1448 1451 1455 1459 1463 1465 1467 1469 1471 1471 1471 1472 1471 1469 1467 1466 1464 1462 1459 1457 1456 1455 1456 1455 1456 1457 1457 1457 1456 1456 1456 1458 1460 1459 1466 1466
1492 1493 1494 1486 1485 1486 1481 1467 1454 1452 1450 1449 1447 1447 1449 1451 1456 1460 1463 1465 1467 1469 1470 1470 1471 1469 1467 1466 1464 1462 1460 1458 1456 1456 1456 1455 1456 1456 1457 1458 1456 1456 1456 1456 1456 1459 1462 1464 1467
1491 1494 1490 1489 1487 1485 1485 1468 1454 1451 1449 1449 1448 1449 1449 1450 1453 1457 1460 1462 1465 1467 1468 1469 1469 1468 1466 1465 1463 1460 1458 1457 1457 1457 1456 1455 1455 1456 1457 1458 1457 1455 1454 1456 1455 1459 1462 1463 1466
1490 1487 1487 1488 1491 1494 1486 1489 1461 1454 1452 1448 1447 1447 1447 1448 1453 1456 1459 1461 1464 1467 1467 1467 1467 1466 1465 1463 1461 1460 1458 1457 1456 1457 1457 1457 1457 1458 1458 1459 1458 1456 1455 1454 1456 1459 1461 1466 1466
1487 1488 1490 1492 1495 1496 1491 1499 1461 1456 1450 1447 1446 1446 1447 1448 1451 1455 1458 1461 1462 1464 1466 1466 1465 1464 1463 1462 1460 1459 1458 1456 1456 1456 1457 1458 1458 1458 1459 1459 1459 1458 1457 1459 1461 1462 1460 1462 1462
1488 1492 1498 1503 1503 1517 1487 1493 1466 1455 1446 1442 1442 1444 1447 1448 1451 1454 1456 1459 1461 1462 1464 1464 1463 1463 1462 1459 1459 1459 1458 1456 1456 1457 1458 1459 1459 1459 1460 1460 1462 1460 1459 1461 1463 1464 1466 1468 1471
1490 1496 1526 1518 1527 1501 1494 1495 1459 1442 1441 1441 1440 1441 1445 1447 1451 1454 1454 1455 1458 1460 1462 1462 1462 1463 1461 1459 1458 1457 1457 1456 1456 1458 1460 1461 1460 1460 1461 1461 1461 1462 1462 1463 1463 1465 1468 1470 1474
1491 1490 1505 1507 1507 1494 1494 1484 1448 1438 1437 1437 1437 1437 1443 1446 1449 1452 1452 1454 1456 1457 1459 1460 1460 1461 1459 1457 1458 1458 1458 1458 1458 1457 1458 1459 1459 1459 1461 1462 1462 1463 1463 1464 1466 1467 1469 1472 1476
1489 1496 1487 1509 1538 1510 1481 1465 1439 1434 1436 1436 1436 1436 1438 1442 1446 1449 1451 1452 1454 1455 1457 1458 1459 1460 1457 1457 1457 1458 1457 1458 1458 1457 1459 1458 1459 1459 1459 1461 1462 1463 1464 1466 1467 1468 1470 1472 1474
1486 1487 1495 1508 1501 1501 1485 1471 1453 1431 1434 1435 1436 1435 1437 1441 1443 1447 1449 1450 1451 1453 1455 1457 1457 1458 1456 1455 1456 1457 1457 1457 1457 1456 1459 1457 1459 1459 1460 1461 1462 1462 1464 1466 1469 1470 1471 1474 1477
1488 1491 1488 1490 1491 1493 1500 1466 1434 1428 1429 1431 1429 1431 1434 1438 1439 1443 1447 1449 1450 1451 1453 1454 1455 1456 1455 1455 1455 1456 1457 1457 1457 1457 1458 1458 1458 1458 1459 1460 1461 1462 1464 1467 1468 1470 1473 1476 1480
1482 1476 1477 1490 1492 1502 1494 1467 1428 1427 1428 1429 1428 1429 1431 1436 1440 1442 1444 1447 1447 1449 1450 1452 1453 1455 1454 1454 1455 1456 1457 1458 1457 1457 1457 1458 1457 1458 1459 1460 1461 1462 1466 1469 1471 1471 1475 1478 1482